Time,TemperatureF,DewpointF,PressureIn,WindDirection,WindDirectionDegrees,WindSpeedMPH,WindSpeedGustMPH,Humidity,HourlyPrecipIn,Conditions,Clouds,dailyrainin,SolarRadiationWatts/m^2,SoftwareType,DateUTC
2013-08-04 00:03:00,69.0,63.0,-100.00,North,10,0.0,0.0,80,0.00,,,0.17,0.000000,,2013-08-04 04:03:00,
2013-08-04 00:22:00,68.0,61.0,-100.00,North,10,0.0,0.0,79,0.00,,,0.17,0.000000,,2013-08-04 04:22:00,
2013-08-04 00:32:00,68.0,61.0,-100.00,North,10,0.0,0.0,79,0.00,,,0.17,0.000000,,2013-08-04 04:32:00,
2013-08-04 00:42:00,68.0,61.0,-100.00,North,10,0.0,0.0,79,0.00,,,0.17,0.000000,,2013-08-04 04:42:00,
2013-08-04 00:52:00,68.0,62.0,-100.00,North,10,0.0,0.0,80,0.00,,,0.17,0.000000,,2013-08-04 04:52:00,
2013-08-04 01:02:00,66.0,61.0,-100.00,North,10,0.0,0.0,84,0.00,,,0.17,0.000000,,2013-08-04 05:02:00,
2013-08-04 01:12:00,66.0,61.0,-100.00,North,10,0.0,0.0,85,0.00,,,0.17,0.000000,,2013-08-04 05:12:00,
2013-08-04 01:22:00,65.0,60.0,-100.00,North,10,0.0,0.0,84,0.00,,,0.17,0.000000,,2013-08-04 05:22:00,
2013-08-04 01:32:00,65.0,60.0,-100.00,North,10,0.0,0.0,83,0.00,,,0.17,0.000000,,2013-08-04 05:32:00,
2013-08-04 01:42:00,65.0,59.0,-100.00,NNE,12,0.0,0.0,81,0.00,,,0.17,0.000000,,2013-08-04 05:42:00,
2013-08-04 01:52:00,66.0,59.0,-100.00,North,4,0.0,0.0,78,0.00,,,0.17,0.000000,,2013-08-04 05:52:00,
2013-08-04 02:02:00,66.0,59.0,-100.00,North,4,0.0,0.0,78,0.00,,,0.17,0.000000,,2013-08-04 06:02:00,
2013-08-04 02:12:00,66.0,59.0,-100.00,North,8,0.0,0.0,77,0.00,,,0.17,0.000000,,2013-08-04 06:12:00,
2013-08-04 02:22:00,65.0,58.0,-100.00,North,10,0.0,0.0,78,0.00,,,0.17,0.000000,,2013-08-04 06:22:00,
2013-08-04 02:32:00,65.0,58.0,-100.00,North,359,0.0,0.0,78,0.00,,,0.17,0.000000,,2013-08-04 06:32:00,
2013-08-04 02:43:00,64.0,57.0,-100.00,North,10,0.0,0.0,77,0.00,,,0.17,0.000000,,2013-08-04 06:43:00,
2013-08-04 02:52:00,64.0,57.0,-100.00,North,4,0.0,0.0,78,0.00,,,0.17,0.000000,,2013-08-04 06:52:00,
2013-08-04 03:02:00,63.0,56.0,-100.00,North,8,0.0,0.0,78,0.00,,,0.17,0.000000,,2013-08-04 07:02:00,
2013-08-04 03:22:00,63.0,57.0,-100.00,North,8,0.0,0.0,80,0.00,,,0.17,0.000000,,2013-08-04 07:22:00,
2013-08-04 03:32:00,62.0,56.0,-100.00,North,8,0.0,0.0,82,0.00,,,0.17,0.000000,,2013-08-04 07:32:00,
2013-08-04 03:43:00,61.0,56.0,-100.00,North,8,0.0,0.0,83,0.00,,,0.17,0.000000,,2013-08-04 07:43:00,
2013-08-04 03:53:00,61.0,56.0,-100.00,North,8,0.0,0.0,83,0.00,,,0.17,0.000000,,2013-08-04 07:53:00,
2013-08-04 04:02:00,61.0,55.0,-100.00,North,4,0.0,0.0,81,0.00,,,0.17,0.000000,,2013-08-04 08:02:00,
2013-08-04 04:12:00,61.0,55.0,-100.00,North,4,0.0,0.0,81,0.00,,,0.17,0.000000,,2013-08-04 08:12:00,
2013-08-04 04:23:00,61.0,55.0,-100.00,North,10,0.0,0.0,80,0.00,,,0.17,0.000000,,2013-08-04 08:23:00,
2013-08-04 04:33:00,61.0,54.0,-100.00,North,10,0.0,0.0,79,0.00,,,0.17,0.000000,,2013-08-04 08:33:00,
2013-08-04 04:43:00,61.0,54.0,-100.00,NNE,12,0.0,0.0,79,0.00,,,0.17,0.000000,,2013-08-04 08:43:00,
2013-08-04 04:53:00,62.0,55.0,-100.00,North,359,0.0,0.0,77,0.00,,,0.17,0.000000,,2013-08-04 08:53:00,
2013-08-04 05:02:00,61.0,54.0,-100.00,North,10,0.0,0.0,77,0.00,,,0.17,0.000000,,2013-08-04 09:02:00,
2013-08-04 05:12:00,61.0,54.0,-100.00,North,10,0.0,0.0,79,0.00,,,0.17,0.000000,,2013-08-04 09:12:00,
2013-08-04 05:22:00,61.0,54.0,-100.00,North,8,0.0,0.0,79,0.00,,,0.17,0.000000,,2013-08-04 09:22:00,
2013-08-04 05:32:00,60.0,54.0,-100.00,North,10,0.0,0.0,80,0.00,,,0.17,0.000000,,2013-08-04 09:32:00,
2013-08-04 05:43:00,60.0,54.0,-100.00,North,10,0.0,0.0,81,0.00,,,0.17,0.000000,,2013-08-04 09:43:00,
2013-08-04 06:02:00,59.0,53.0,-100.00,NNE,16,0.0,0.0,81,0.00,,,0.17,0.000000,,2013-08-04 10:02:00,
2013-08-04 06:12:00,59.0,53.0,-100.00,North,4,0.0,0.0,81,0.00,,,0.17,0.000000,,2013-08-04 10:12:00,
2013-08-04 06:22:00,59.0,54.0,-100.00,North,4,0.0,0.0,82,0.00,,,0.16,0.000000,,2013-08-04 10:22:00,
2013-08-04 06:32:00,59.0,54.0,-100.00,NNE,12,0.0,0.0,82,0.00,,,0.16,0.000000,,2013-08-04 10:32:00,
2013-08-04 06:43:00,59.0,54.0,-100.00,North,10,0.0,0.0,83,0.00,,,0.16,0.000000,,2013-08-04 10:43:00,
2013-08-04 06:53:00,58.0,53.0,-100.00,North,8,0.0,0.0,83,0.00,,,0.16,0.000000,,2013-08-04 10:53:00,
2013-08-04 07:02:00,58.0,53.0,-100.00,North,4,0.0,0.0,83,0.00,,,0.16,7.000000,,2013-08-04 11:02:00,
2013-08-04 07:22:00,57.0,52.0,-100.00,North,8,0.0,0.0,84,0.00,,,0.11,18.000000,,2013-08-04 11:22:00,
2013-08-04 07:32:00,58.0,54.0,-100.00,NNE,12,0.0,0.0,85,0.00,,,0.11,21.000000,,2013-08-04 11:32:00,
2013-08-04 07:42:00,58.0,53.0,-100.00,North,4,0.0,0.0,84,0.00,,,0.11,25.000000,,2013-08-04 11:42:00,
2013-08-04 07:53:00,58.0,53.0,-100.00,North,8,0.0,0.0,84,0.00,,,0.11,84.000000,,2013-08-04 11:53:00,
2013-08-04 08:02:00,59.0,54.0,-100.00,North,9,0.0,0.0,83,0.00,,,0.11,118.000000,,2013-08-04 12:02:00,
2013-08-04 08:12:00,60.0,54.0,-100.00,NNE,19,0.0,0.0,82,0.00,,,0.11,153.000000,,2013-08-04 12:12:00,
2013-08-04 08:22:00,60.0,54.0,-100.00,NNE,23,0.0,0.0,81,0.00,,,0.05,123.000000,,2013-08-04 12:22:00,
2013-08-04 08:33:00,60.0,54.0,-100.00,North,10,0.0,0.0,82,0.00,,,0.05,91.000000,,2013-08-04 12:33:00,
2013-08-04 08:43:00,61.0,55.0,-100.00,North,8,0.0,0.0,82,0.00,,,0.05,267.000000,,2013-08-04 12:43:00,
2013-08-04 08:53:00,62.0,56.0,-100.00,North,8,3.0,8.0,81,0.00,,,0.05,301.000000,,2013-08-04 12:53:00,
2013-08-04 09:02:00,63.0,57.0,-100.00,NNE,13,1.0,7.0,80,0.00,,,0.05,334.000000,,2013-08-04 13:02:00,
2013-08-04 09:12:00,63.0,56.0,-100.00,NNE,15,2.0,7.0,79,0.00,,,0.05,366.000000,,2013-08-04 13:12:00,
2013-08-04 09:22:00,64.0,58.0,-100.00,North,8,2.0,7.0,80,0.00,,,0.00,399.000000,,2013-08-04 13:22:00,
2013-08-04 09:32:00,64.0,57.0,-100.00,NNE,21,4.0,8.0,78,0.00,,,0.00,432.000000,,2013-08-04 13:32:00,
2013-08-04 09:52:00,66.0,59.0,-100.00,NNE,25,4.0,8.0,77,0.00,,,0.00,441.000000,,2013-08-04 13:52:00,
2013-08-04 10:02:00,66.0,58.0,-100.00,NNE,29,6.0,11.0,75,0.00,,,0.00,529.000000,,2013-08-04 14:02:00,
2013-08-04 10:12:00,66.0,58.0,-100.00,NNE,27,5.0,9.0,75,0.00,,,0.00,563.000000,,2013-08-04 14:12:00,
2013-08-04 10:22:00,67.0,59.0,-100.00,NNE,25,4.0,10.0,75,0.00,,,0.00,594.000000,,2013-08-04 14:22:00,
2013-08-04 10:32:00,68.0,59.0,-100.00,NNE,24,2.0,9.0,74,0.00,,,0.00,621.000000,,2013-08-04 14:32:00,
2013-08-04 10:43:00,69.0,59.0,-100.00,NNE,23,4.0,10.0,71,0.00,,,0.00,650.000000,,2013-08-04 14:43:00,
2013-08-04 10:53:00,69.0,59.0,-100.00,NNE,21,3.0,7.0,70,0.00,,,0.00,680.000000,,2013-08-04 14:53:00,
2013-08-04 11:02:00,70.0,59.0,-100.00,NNE,16,4.0,9.0,68,0.00,,,0.00,705.000000,,2013-08-04 15:02:00,
2013-08-04 11:12:00,70.0,59.0,-100.00,NNE,23,4.0,8.0,67,0.00,,,0.00,733.000000,,2013-08-04 15:12:00,
2013-08-04 11:22:00,71.0,59.0,-100.00,NNE,22,2.0,7.0,67,0.00,,,0.00,758.000000,,2013-08-04 15:22:00,
2013-08-04 11:32:00,71.0,58.0,-100.00,North,10,5.0,8.0,64,0.00,,,0.00,784.000000,,2013-08-04 15:32:00,
2013-08-04 11:42:00,71.0,59.0,-100.00,North,4,5.0,8.0,65,0.00,,,0.00,803.000000,,2013-08-04 15:42:00,
2013-08-04 11:53:00,71.0,59.0,-100.00,NNW,339,6.0,9.0,67,0.00,,,0.00,835.000000,,2013-08-04 15:53:00,
2013-08-04 12:02:00,72.0,59.0,-100.00,NNE,16,4.0,7.0,64,0.00,,,0.00,867.000000,,2013-08-04 16:02:00,
2013-08-04 12:12:00,73.0,59.0,-100.00,NNE,25,4.0,9.0,62,0.00,,,0.00,895.000000,,2013-08-04 16:12:00,
2013-08-04 12:22:00,72.0,58.0,-100.00,NNE,23,4.0,9.0,61,0.00,,,0.00,163.000000,,2013-08-04 16:22:00,
2013-08-04 12:33:00,72.0,57.0,-100.00,NNW,339,7.0,11.0,59,0.00,,,0.00,932.000000,,2013-08-04 16:33:00,
2013-08-04 12:42:00,72.0,57.0,-100.00,NNE,31,6.0,11.0,59,0.00,,,0.00,935.000000,,2013-08-04 16:42:00,
2013-08-04 12:53:00,73.0,58.0,-100.00,NNE,15,2.0,13.0,60,0.00,,,0.00,942.000000,,2013-08-04 16:53:00,
2013-08-04 13:02:00,73.0,55.0,-100.00,NNE,20,6.0,13.0,53,0.00,,,0.00,962.000000,,2013-08-04 17:02:00,
2013-08-04 13:12:00,74.0,59.0,-100.00,NNE,14,6.0,9.0,59,0.00,,,0.00,1042.000000,,2013-08-04 17:12:00,
2013-08-04 13:22:00,73.0,58.0,-100.00,NNE,17,3.0,8.0,59,0.00,,,0.00,1092.000000,,2013-08-04 17:22:00,
2013-08-04 13:32:00,73.0,56.0,-100.00,NNE,23,6.0,11.0,55,0.00,,,0.00,1048.000000,,2013-08-04 17:32:00,
2013-08-04 13:53:00,74.0,56.0,-100.00,North,8,5.0,11.0,54,0.00,,,0.00,1067.000000,,2013-08-04 17:53:00,
2013-08-04 14:02:00,75.0,57.0,-100.00,NNE,13,3.0,15.0,54,0.00,,,0.00,1056.000000,,2013-08-04 18:02:00,
2013-08-04 14:12:00,75.0,58.0,-100.00,NNW,347,5.0,10.0,55,0.00,,,0.00,141.000000,,2013-08-04 18:12:00,
2013-08-04 14:23:00,74.0,57.0,-100.00,NNE,31,6.0,9.0,55,0.00,,,0.00,1035.000000,,2013-08-04 18:23:00,
2013-08-04 14:33:00,74.0,56.0,-100.00,NNE,25,6.0,10.0,53,0.00,,,0.00,149.000000,,2013-08-04 18:33:00,
2013-08-04 14:43:00,75.0,56.0,-100.00,North,354,5.0,9.0,52,0.00,,,0.00,253.000000,,2013-08-04 18:43:00,
2013-08-04 14:52:00,74.0,55.0,-100.00,North,354,2.0,11.0,52,0.00,,,0.00,146.000000,,2013-08-04 18:52:00,
2013-08-04 15:02:00,75.0,55.0,-100.00,NNE,29,4.0,8.0,49,0.00,,,0.00,160.000000,,2013-08-04 19:02:00,
2013-08-04 15:12:00,75.0,56.0,-100.00,NNE,27,3.0,8.0,51,0.00,,,0.00,172.000000,,2013-08-04 19:12:00,
2013-08-04 15:22:00,76.0,56.0,-100.00,NNE,30,6.0,9.0,50,0.00,,,0.00,178.000000,,2013-08-04 19:22:00,
2013-08-04 15:33:00,75.0,56.0,-100.00,NNE,21,2.0,7.0,52,0.00,,,0.00,158.000000,,2013-08-04 19:33:00,
2013-08-04 15:44:00,76.0,57.0,-100.00,NNE,24,2.0,7.0,52,0.00,,,0.00,207.000000,,2013-08-04 19:44:00,
2013-08-04 15:53:00,76.0,55.0,-100.00,North,8,8.0,12.0,48,0.00,,,0.00,155.000000,,2013-08-04 19:53:00,
2013-08-04 16:02:00,76.0,55.0,-100.00,NNE,31,2.0,8.0,48,0.00,,,0.00,155.000000,,2013-08-04 20:02:00,
2013-08-04 16:12:00,75.0,55.0,-100.00,North,354,4.0,7.0,50,0.00,,,0.00,162.000000,,2013-08-04 20:12:00,
2013-08-04 16:22:00,76.0,56.0,-100.00,NNE,32,4.0,10.0,50,0.00,,,0.00,142.000000,,2013-08-04 20:22:00,
2013-08-04 16:33:00,76.0,57.0,-100.00,NNE,27,2.0,8.0,51,0.00,,,0.00,673.000000,,2013-08-04 20:33:00,
2013-08-04 16:43:00,77.0,54.0,-100.00,NNE,25,7.0,11.0,45,0.00,,,0.00,782.000000,,2013-08-04 20:43:00,
2013-08-04 16:53:00,75.0,56.0,-100.00,NNE,23,2.0,7.0,51,0.00,,,0.00,135.000000,,2013-08-04 20:53:00,
2013-08-04 17:02:00,76.0,55.0,-100.00,NNE,21,2.0,5.0,49,0.00,,,0.00,754.000000,,2013-08-04 21:02:00,
2013-08-04 17:12:00,77.0,55.0,-100.00,NNE,24,3.0,8.0,47,0.00,,,0.00,816.000000,,2013-08-04 21:12:00,
2013-08-04 17:22:00,77.0,55.0,-100.00,NNE,22,5.0,10.0,46,0.00,,,0.00,756.000000,,2013-08-04 21:22:00,
2013-08-04 17:32:00,76.0,55.0,-100.00,NNE,18,1.0,7.0,49,0.00,,,0.00,97.000000,,2013-08-04 21:32:00,
2013-08-04 17:43:00,76.0,55.0,-100.00,NNE,27,3.0,6.0,49,0.00,,,0.00,664.000000,,2013-08-04 21:43:00,
2013-08-04 17:53:00,76.0,55.0,-100.00,NNE,30,3.0,8.0,48,0.00,,,0.00,582.000000,,2013-08-04 21:53:00,
2013-08-04 18:02:00,76.0,55.0,-100.00,NNE,18,2.0,8.0,48,0.00,,,0.00,104.000000,,2013-08-04 22:02:00,
2013-08-04 18:12:00,75.0,54.0,-100.00,North,4,2.0,5.0,48,0.00,,,0.00,568.000000,,2013-08-04 22:12:00,
2013-08-04 18:22:00,75.0,56.0,-100.00,NNE,22,2.0,6.0,51,0.00,,,0.00,137.000000,,2013-08-04 22:22:00,
2013-08-04 18:32:00,74.0,56.0,-100.00,NNW,348,2.0,8.0,54,0.00,,,0.00,95.000000,,2013-08-04 22:32:00,
2013-08-04 18:43:00,73.0,56.0,-100.00,NNE,15,1.0,4.0,55,0.00,,,0.00,67.000000,,2013-08-04 22:43:00,
2013-08-04 18:53:00,74.0,57.0,-100.00,North,354,2.0,5.0,55,0.00,,,0.00,360.000000,,2013-08-04 22:53:00,
2013-08-04 19:02:00,75.0,56.0,-100.00,NNE,19,1.0,5.0,52,0.00,,,0.00,327.000000,,2013-08-04 23:02:00,
2013-08-04 19:12:00,75.0,56.0,-100.00,North,4,2.0,5.0,52,0.00,,,0.00,276.000000,,2013-08-04 23:12:00,
2013-08-04 19:23:00,76.0,57.0,-100.00,NNE,23,3.0,6.0,52,0.00,,,0.00,299.000000,,2013-08-04 23:23:00,
2013-08-04 19:32:00,75.0,56.0,-100.00,NNW,347,4.0,8.0,51,0.00,,,0.00,169.000000,,2013-08-04 23:32:00,
2013-08-04 19:43:00,75.0,57.0,-100.00,NNE,14,1.0,7.0,54,0.00,,,0.00,174.000000,,2013-08-04 23:43:00,
2013-08-04 19:53:00,74.0,57.0,-100.00,NNE,12,1.0,5.0,55,0.00,,,0.00,146.000000,,2013-08-04 23:53:00,
2013-08-04 20:02:00,74.0,58.0,-100.00,North,359,0.0,2.0,57,0.00,,,0.00,116.000000,,2013-08-05 00:02:00,
2013-08-04 20:12:00,74.0,60.0,-100.00,North,4,0.0,2.0,61,0.00,,,0.00,74.000000,,2013-08-05 00:12:00,
2013-08-04 20:52:00,71.0,60.0,-100.00,North,4,0.0,0.0,69,0.00,,,0.00,14.000000,,2013-08-05 00:52:00,
2013-08-04 21:02:00,70.0,61.0,-100.00,North,4,0.0,0.0,72,0.00,,,0.00,7.000000,,2013-08-05 01:02:00,
2013-08-04 21:12:00,69.0,60.0,-100.00,North,4,0.0,0.0,74,0.00,,,0.00,0.000000,,2013-08-05 01:12:00,
2013-08-04 21:22:00,67.0,59.0,-100.00,North,4,0.0,0.0,75,0.00,,,0.00,0.000000,,2013-08-05 01:22:00,
2013-08-04 21:33:00,66.0,58.0,-100.00,North,4,0.0,0.0,76,0.00,,,0.00,0.000000,,2013-08-05 01:33:00,
2013-08-04 21:52:00,64.0,58.0,-100.00,North,4,0.0,0.0,82,0.00,,,0.00,0.000000,,2013-08-05 01:52:00,
2013-08-04 22:02:00,63.0,58.0,-100.00,North,4,0.0,0.0,83,0.00,,,0.00,0.000000,,2013-08-05 02:02:00,
2013-08-04 22:12:00,63.0,58.0,-100.00,North,4,0.0,0.0,85,0.00,,,0.00,0.000000,,2013-08-05 02:12:00,
2013-08-04 22:22:00,62.0,58.0,-100.00,North,4,0.0,0.0,86,0.00,,,0.00,0.000000,,2013-08-05 02:22:00,
2013-08-04 22:33:00,62.0,58.0,-100.00,North,4,0.0,0.0,88,0.00,,,0.00,0.000000,,2013-08-05 02:33:00,
2013-08-04 22:43:00,62.0,58.0,-100.00,North,4,0.0,0.0,88,0.00,,,0.00,0.000000,,2013-08-05 02:43:00,
2013-08-04 22:53:00,61.0,58.0,-100.00,North,4,0.0,0.0,89,0.00,,,0.00,0.000000,,2013-08-05 02:53:00,
2013-08-04 23:02:00,61.0,58.0,-100.00,North,4,0.0,0.0,89,0.00,,,0.00,0.000000,,2013-08-05 03:02:00,
2013-08-04 23:12:00,61.0,58.0,-100.00,North,4,0.0,0.0,90,0.00,,,0.00,0.000000,,2013-08-05 03:12:00,
2013-08-04 23:22:00,60.0,57.0,-100.00,North,4,0.0,0.0,90,0.00,,,0.00,0.000000,,2013-08-05 03:22:00,
2013-08-04 23:32:00,60.0,57.0,-100.00,North,4,0.0,0.0,90,0.00,,,0.00,0.000000,,2013-08-05 03:32:00,
2013-08-04 23:53:00,60.0,57.0,-100.00,North,4,0.0,0.0,90,0.00,,,0.00,0.000000,,2013-08-05 03:53:00,